This is the latest recevied weather packets stored in our database for station/object WA6GRA. If no packets are shown the sender has not sent any weather packets the latest 10 day(s).
| Time | Temp. | Humidity | Pressure | Rain* | Wind** | Luminosity | Snow |
|---|---|---|---|---|---|---|---|
| 1777831339 | 18.33° C | 67% | 1012.5 hPa | 0 mm | - | 907 W/m² | - |
| 1777830739 | 18.89° C | 68% | 1012.5 hPa | 0 mm | - | 610 W/m² | - |
| 1777830138 | 17.78° C | 69% | 1012.6 hPa | 0 mm | - | 883 W/m² | - |
| 1777829535 | 18.89° C | 66% | 1012.5 hPa | 0 mm | - | 757 W/m² | - |
| 1777828935 | 18.33° C | 68% | 1012.4 hPa | 0 mm | - | 698 W/m² | - |
| 1777828334 | 17.22° C | 70% | 1012.4 hPa | 0 mm | - | 661 W/m² | - |
| 1777827734 | 17.78° C | 69% | 1012.3 hPa | 0 mm | - | 632 W/m² | - |
| 1777827134 | 17.22° C | 71% | 1012.1 hPa | 0 mm | - | 605 W/m² | - |
| 1777826528 | 17.22° C | 72% | 1012.3 hPa | 0 mm | - | 581 W/m² | - |
| 1777825927 | 16.67° C | 73% | 1012.1 hPa | 0 mm | - | 530 W/m² | - |
| 1777825322 | 16.11° C | 75% | 1012.3 hPa | 0 mm | - | 469 W/m² | - |
| 1777824720 | 15.56° C | 79% | 1011.9 hPa | 0 mm | - | 391 W/m² | - |
| 1777824119 | 15° C | 81% | 1012.1 hPa | 0 mm | - | 193 W/m² | - |
| 1777823513 | 15° C | 81% | 1011.9 hPa | 0 mm | - | 188 W/m² | - |
| 1777822908 | 14.44° C | 82% | 1011.8 hPa | 0 mm | - | 165 W/m² | - |
| 1777822309 | 14.44° C | 82% | 1011.7 hPa | 0 mm | - | 146 W/m² | - |
| 1777821704 | 13.89° C | 84% | 1011.8 hPa | 0 mm | - | 132 W/m² | - |
| 1777821103 | 13.89° C | 86% | 1011.8 hPa | 0 mm | - | 129 W/m² | - |
| 1777820502 | 13.33° C | 88% | 1011.6 hPa | 0 mm | - | 109 W/m² | - |
| 1777819903 | 13.33° C | 89% | 1011.4 hPa | 0 mm | - | 89 W/m² | - |
| 1777819298 | 13.33° C | 89% | 1011.1 hPa | 0 mm | - | 74 W/m² | - |
| 1777818697 | 12.78° C | 90% | 1011.3 hPa | 0 mm | - | 64 W/m² | - |
| 1777818096 | 12.78° C | 90% | 1011.1 hPa | 0 mm | - | 83 W/m² | - |
| 1777817496 | 12.78° C | 90% | 1010.8 hPa | 0 mm | - | 54 W/m² | - |
| 1777816895 | 12.78° C | 90% | 1010.8 hPa | 0 mm | - | 44 W/m² | - |
* Rain latest hour (hover to see other rain measurements)
** Current wind speed in m/s (hover to see current wind gust speed)